Location: St. Louis
(38.6270°N, 90.1994°W)
Time: 11:38:28
(UTC-06:00)

S-56A Canister/Altair - Pass Details

Date: 06 December 2021
Orbit: 634 x 2499 km, 38.9° (Epoch: 26 January)

Event Time Altitude Azimuth Distance (km) Brightness Sun altitude
Rises 19:12:16 0° 184° (S) 6,114 12.2 -29.1°
Reaches altitude 10° 19:19:21 10° 163° (SSE) 4,910 11.5 -30.5°
Enters shadow 19:23:48 14° 144° (SE) 4,401 11.1 -31.4°
Maximum altitude 19:25:17 14° 137° (SE) 4,302 - -31.7°
Drops below altitude 10° 19:30:35 10° 110° (ESE) 4,319 - -32.7°
Sets 19:35:54 0° 88° (E) 4,925 - -33.7°
